Regional Weather Roundup
Issued by NWS

Home | Current Version | Previous Version | Graphics & Text | Print | Product List | Glossary On
Versions: 1 2 3 4 5 6 7 8 9 10 11 12 13 14 15 16 17 18 19 20 21 22 23 24 25 26 27 28 29 30 31 32 33 34 35 36 37 38 39 40 41 42 43 44 45 46 47 48 49 50
985
ASUS45 KPSR 092110
RWRAZ

ARIZONA HOURLY REGIONAL WEATHER ROUNDUP
NATIONAL WEATHER SERVICE PHOENIX AZ
200 PM MST TUE FEB 09 2016

NOTE: FAIR INDICATES FEW OR NO CLOUDS BELOW 12,000 FEET WITH NO
SIGNIFICANT WEATHER AND/OR OBSTRUCTIONS TO VISIBILITY.

AZZ001>003-036-092200-
NORTHWEST ARIZONA

CITY           SKY/WX    TMP DP  RH WIND       PRES   REMARKS
BULLHEAD CITY  SUNNY     73  27  17 N28G36    30.20F
KINGMAN        SUNNY     68  23  18 N14       30.29F
$$

AZZ004>008-015-016-018-092200-
NORTH CENTRAL ARIZONA

CITY           SKY/WX    TMP DP  RH WIND       PRES   REMARKS
GRAND CANYON   SUNNY     55  12  18 NE13      30.43F
WILLIAMS       SUNNY     61  27  27 NW12      30.44F
PRESCOTT       SUNNY     68  11  11 CALM      30.32F
FLAGSTAFF      SUNNY     53  16  23 NE12G18   30.40F
PAYSON         SUNNY     66  19  16 SW6G13    30.31F
PAGE           SUNNY     50  28  42 NE7       30.42F
$$

AZZ009>014-017-092200-
NORTHEAST ARIZONA

CITY           SKY/WX    TMP DP  RH WIND       PRES   REMARKS
WINSLOW        SUNNY     58  21  24 VRB5      30.38F
SAINT JOHNS    SUNNY     56  21  25 W9        30.36F
WINDOW ROCK    SUNNY     56   0  10 SW3       30.38F
SHOW LOW       SUNNY     50  18  27 N10       30.40F
$$

AZZ023-092200-
GREATER PHOENIX AREA

CITY           SKY/WX    TMP DP  RH WIND       PRES   REMARKS
PHOENIX        SUNNY     84  18   8 NE14      30.11F
BUCKEYE        SUNNY     81  27  13 E8        30.15F
GLENDALE       SUNNY     82  19   9 NE5       30.14F
LUKE AFB       SUNNY     82  19  10 E7        30.12F
DEER VALLEY    SUNNY     80  21  11 VRB6      30.13F
SCOTTSDALE     SUNNY     80  16   9 CALM      30.15F
MESA-FALCON    SUNNY    N/A N/A N/A E7        30.13F
MESA-GATEWAY   SUNNY     79  27  14 CALM      30.14F
CHANDLER       SUNNY     82  25  12 NE10      30.13F
$$

AZZ027-028-092200-
SOUTHWEST MARICOPA COUNTY AND PINAL COUNTY

CITY           SKY/WX    TMP DP  RH WIND       PRES   REMARKS
CASA GRANDE    SUNNY     81  27  13 NE10G20   30.14F
GILA BEND      SUNNY     81  24  12 NE15      30.10F
$$

AZZ503-504-507>509-092200-
SOUTHEAST ARIZONA

CITY           SKY/WX    TMP DP  RH WIND       PRES   REMARKS
TUCSON         SUNNY     80  13   8 E8        30.16F
DAVIS-MONTHAN  SUNNY     79  16   9 NE8       30.14F
RYAN FIELD     SUNNY     81  23  12 E10G16    30.15F
NOGALES        SUNNY     78  11   8 CALM      30.17F
SIERRA VISTA   SUNNY     69  13  11 VRB5      30.26F
DOUGLAS        SUNNY     73  15  11 VRB7      30.24F
SAFFORD        SUNNY     69  21  16 S8        30.24F
$$

AZZ020-021-025-026-031-092200-
SOUTHWEST ARIZONA

CITY           SKY/WX    TMP DP  RH WIND       PRES   REMARKS
YUMA           SUNNY     83  25  12 N15G25    30.12F
$$

CAZ031-033-041-043-047-048-061-092200-
SOUTHERN CALIFORNIA

CITY           SKY/WX    TMP DP  RH WIND       PRES   REMARKS
DOWNTOWN L.A.  SUNNY     88  24  10 CALM      30.08F
L.A. AIRPORT   MOSUNNY   87  24  10 W3        30.08F
SAN DIEGO      SUNNY     80  34  19 NW5       30.09F
BURBANK        SUNNY     85  21   9 VRB6      30.10F
ONTARIO        MOSUNNY   84  21  10 CALM      30.12F
RIVERSIDE      SUNNY     86  22   9 NE12G20   30.12F
PALM SPRINGS   SUNNY     86  23  10 CALM      30.15F
EL CENTRO NAS  MOSUNNY   84  20   9 VRB3      30.14F
IMPERIAL       SUNNY     83  25  12 VRB5      30.12F
BLYTHE         SUNNY     81  25  12 N15       30.16F
NEEDLES        SUNNY     78  25  14 N25G32    30.20F
$$

NVZ020-UTZ003-092200-
SOUTHERN NEVADA-UTAH

CITY           SKY/WX    TMP DP  RH WIND       PRES   REMARKS
LAS VEGAS      SUNNY     68  25  19 CALM      30.28F
SALT LAKE CITY SUNNY     39  28  64 NW6       30.53F HAZE    WCI  35
$$

NMZ009-TXZ055-092200-
NEW MEXICO-WEST TEXAS

CITY           SKY/WX    TMP DP  RH WIND       PRES   REMARKS
ALBUQUERQUE    SUNNY     58  21  24 W5        30.34F
EL PASO        SUNNY     62  16  16 CALM      30.30F
$$


........................KEY........................
SKY/WX - SKY CONDITION/WEATHER
TMP    - TEMPERATURE IN FAHRENHEIT
DP     - DEW POINT IN FAHRENHEIT
RH     - RELATIVE HUMIDITY IN PERCENT
WIND   - DIRECTION AND SPEED IN MILES PER HOUR (MPH)
VRB    - VARIABLE WIND DIRECTION
PRES   - MEAN SEA LEVEL PRESSURE IN INCHES OF MERCURY
         F - FALLING PRESSURE   R - RISING PRESSURE
         S - STEADY PRESSURE
VSB    - VISIBILITY IN MILES
HX     - HEAT INDEX IN FAHRENHEIT
WCI    - WIND CHILL INDEX IN FAHRENHEIT
TC     - TEMPERATURE IN CELSIUS WHICH IS ALSO KNOWN AS
         TEMPERATURE IN CENTIGRADE
AFB    - AIR FORCE BASE
         LUKE AFB IS LUKE AIR FORCE BASE
         DAVIS-MONTHAN IS DAVIS-MONTHAN AIR FORCE BASE
NAS    - NAVAL AIR STATION
         EL CENTRO NAS IS EL CENTRO NAVAL AIR STATION
N/A    - NOT AVAILABLE





USA.gov is the U.S. government's official web portal to all federal, state and local government web resources and services.